GW4214 Weather Reports


Display with metric or nautical units.
time (UTC)temp
F
wind
direction
speed
MPH
gust
MPH
rain 1hr
in
rain 24hr
in
rain mn
in
humidity
%
barometer
mb
20260903015652 58 197 0.0 0.0 0.00 0.60 0.60 98 1011.5
20260903015147 58 205 0.0 0.0 0.00 0.60 0.60 98 1011.1
20260903014642 58 206 0.0 0.0 0.00 0.60 0.60 99 1011.1
20260903014141 58 190 0.0 0.0 0.00 0.60 0.60 98 1011.1
20260903013636 58 200 0.0 0.0 0.00 0.60 0.60 98 1010.7
20260903013136 58 188 0.0 0.0 0.00 0.60 0.60 98 1010.7
20260903012635 58 188 1.0 1.0 0.00 0.60 0.60 98 1011.1
20260903012134 58 183 3.0 3.0 0.00 0.60 0.60 98 1010.7
20260903011634 58 188 1.0 2.0 0.00 0.60 0.60 98 1010.7
20260903011128 58 178 3.0 5.0 0.00 0.60 0.60 98 1010.7
20260903010624 58 194 2.0 2.0 0.00 0.60 0.60 98 1010.7
20260903010122 58 190 5.0 7.0 0.00 0.60 0.60 98 1010.7
20260903005617 58 193 2.0 3.0 0.00 0.60 0.60 99 1010.7
20260903005113 58 208 2.0 3.0 0.12 0.60 0.60 99 1010.7
20260903004608 58 210 0.0 1.0 0.19 0.60 0.60 99 1010.7
20260903004103 59 212 3.0 5.0 0.07 0.58 0.58 99 1010.7
20260903003558 59 189 4.0 5.0 0.00 0.57 0.57 99 1010.7
20260903003054 59 201 3.0 5.0 0.00 0.57 0.57 99 1010.7
20260903002548 59 211 3.0 5.0 0.00 0.57 0.57 99 1010.4
20260903002043 59 214 1.0 2.0 0.00 0.57 0.57 99 1010.7
20260903001537 59 205 2.0 2.0 0.00 0.57 0.57 99 1010.4
20260903001037 59 199 3.0 3.0 0.00 0.57 0.57 99 1010.7
20260903000533 59 210 0.0 1.0 0.00 0.57 0.57 99 1010.4
20260903000031 59 193 1.0 2.0 0.00 0.57 0.57 99 1010.4
20260902235525 59 178 2.0 2.0 0.00 0.57 0.57 99 1010.4
20260902235020 59 204 3.0 3.0 0.00 0.57 0.57 99 1010.4
20260902234515 59 194 0.0 0.0 0.00 0.57 0.57 99 1010.0
20260902234013 59 203 0.0 0.0 0.00 0.57 0.57 99 1010.0
20260902233508 59 212 0.0 0.0 0.00 0.57 0.57 99 1010.0
20260902233002 59 208 0.0 1.0 0.00 0.57 0.57 99 1010.0
20260902232456 59 178 0.0 0.0 0.00 0.57 0.57 99 1010.0
20260902231956 59 182 0.0 0.0 0.28 0.57 0.57 99 1010.0
20260902231451 59 206 0.0 0.0 0.59 0.57 0.57 99 1010.0
20260902230946 59 184 2.0 2.0 0.31 0.52 0.52 99 1010.0
20260902230440 59 209 2.0 2.0 0.12 0.48 0.48 99 1010.0
20260902225939 59 195 6.0 9.0 0.12 0.47 0.47 98 1009.7
20260902225434 59 189 5.0 6.0 0.12 0.46 0.46 98 1009.7
20260902224933 59 184 5.0 6.0 0.12 0.45 0.45 98 1009.7
20260902224433 59 150 9.0 14.0 0.12 0.44 0.44 98 1009.7
20260902223931 59 189 9.0 15.0 0.07 0.43 0.43 98 1009.3
20260902223430 59 155 9.0 11.0 0.05 0.42 0.42 98 1009.7
20260902222930 59 166 5.0 6.0 0.05 0.42 0.42 97 1009.3
20260902222428 59 168 5.0 8.0 0.07 0.41 0.41 98 1009.3
20260902221922 59 142 3.0 5.0 0.07 0.41 0.41 97 1009.7
20260902221421 59 185 4.0 5.0 0.00 0.40 0.40 97 1009.7
20260902220917 59 176 9.0 10.0 0.05 0.40 0.40 97 1009.7
20260902220417 59 162 10.0 13.0 0.05 0.40 0.40 97 1009.3
20260902215912 59 167 8.0 10.0 0.00 0.39 0.39 96 1009.3
20260902215408 59 168 6.0 9.0 0.07 0.39 0.39 96 1009.3
20260902214904 59 165 7.0 10.0 0.07 0.39 0.39 96 1009.0
20260902214402 59 228 5.0 5.0 0.00 0.38 0.38 95 1009.3
20260902213857 59 158 6.0 9.0 0.00 0.38 0.38 95 1009.3
20260902213353 59 197 5.0 6.0 0.00 0.38 0.38 95 1009.3
20260902212851 59 148 7.0 8.0 0.05 0.38 0.38 95 1009.3
20260902212348 59 170 4.0 6.0 0.05 0.38 0.38 95 1009.3
20260902211844 59 189 5.0 6.0 0.05 0.38 0.38 95 1009.7
20260902211340 59 157 8.0 9.0 0.00 0.37 0.37 94 1009.3
20260902210835 59 142 8.0 9.0 0.00 0.37 0.37 94 1009.3
20260902210334 59 161 6.0 13.0 0.07 0.37 0.37 94 1009.3
20260902205833 60 173 5.0 7.0 0.07 0.37 0.37 93 1009.3
20260902205327 59 171 7.0 9.0 0.07 0.36 0.36 92 1009.0
20260902204823 59 180 7.0 9.0 0.07 0.36 0.36 93 1009.0
20260902204318 59 173 6.0 7.0 0.07 0.36 0.36 94 1009.0
20260902203813 59 146 5.0 7.0 0.00 0.35 0.35 95 1009.0
20260902203308 59 154 5.0 6.0 0.00 0.35 0.35 95 1009.0
20260902202802 59 203 4.0 6.0 0.00 0.35 0.35 95 1009.0
20260902202259 58 179 3.0 5.0 0.00 0.35 0.35 96 1009.0
20260902201755 59 222 5.0 8.0 0.00 0.35 0.35 96 1009.0
20260902201255 59 197 5.0 7.0 0.00 0.35 0.35 97 1008.7
20260902200750 59 213 5.0 7.0 0.00 0.35 0.35 97 1008.7
20260902200245 59 200 4.0 6.0 0.00 0.35 0.35 97 1008.7
20260902195741 59 175 9.0 11.0 0.00 0.35 0.35 97 1008.7
20260902195240 59 177 5.0 8.0 0.00 0.35 0.35 97 1008.7
20260902194734 59 179 3.0 3.0 0.00 0.35 0.35 97 1008.7
20260902194229 59 179 8.0 10.0 0.00 0.35 0.35 97 1008.7
20260902193725 58 171 5.0 7.0 0.05 0.35 0.35 97 1008.7
20260902193220 58 176 5.0 7.0 0.05 0.35 0.35 97 1008.7
20260902192718 58 178 3.0 3.0 0.12 0.35 0.35 97 1008.7
20260902192212 58 173 3.0 3.0 0.12 0.34 0.34 98 1008.7
20260902191712 58 181 4.0 7.0 0.05 0.33 0.33 98 1008.7
20260902191207 58 132 5.0 7.0 0.05 0.33 0.33 98 1008.7
20260902190702 58 142 4.0 6.0 0.07 0.32 0.32 98 1008.7
20260902190157 58 177 5.0 6.0 0.12 0.31 0.31 98 1008.7
20260902185653 58 170 2.0 3.0 0.12 0.31 0.31 98 1008.7
20260902185149 58 140 5.0 6.0 0.12 0.30 0.30 98 1008.7
20260902184649 58 184 2.0 2.0 0.12 0.29 0.29 97 1009.0
20260902184145 58 144 4.0 6.0 0.19 0.28 0.28 97 1009.0
20260902183640 58 131 3.0 3.0 0.24 0.27 0.27 97 1008.7
20260902183137 58 176 1.0 1.0 0.24 0.25 0.25 97 1009.0
20260902182632 58 166 6.0 7.0 0.35 0.23 0.23 96 1009.3
20260902182129 58 166 4.0 5.0 0.31 0.21 0.21 96 1009.3
20260902181625 58 170 4.0 5.0 0.24 0.18 0.18 96 1009.0
20260902181124 58 173 4.0 5.0 0.24 0.16 0.16 96 1009.0
20260902180624 58 186 3.0 5.0 0.12 0.14 0.14 96 1009.0
20260902180120 58 195 4.0 6.0 0.07 0.12 0.12 96 1009.3
20260902175620 58 179 4.0 5.0 0.07 0.12 0.12 96 1009.0
20260902175116 58 192 5.0 6.0 0.00 0.11 0.11 95 1009.0
20260902174612 58 171 2.0 3.0 0.00 0.11 0.11 96 1009.0
20260902174108 58 160 2.0 2.0 0.00 0.11 0.11 96 1009.3
20260902173607 58 185 2.0 3.0 0.05 0.11 0.11 96 1009.3
20260902173103 58 183 4.0 5.0 0.12 0.11 0.11 95 1009.3
20260902172556 58 175 2.0 3.0 0.12 0.10 0.10 95 1009.7
20260902172052 58 168 4.0 5.0 0.12 0.09 0.09 95 1009.7
20260902171547 58 167 1.0 2.0 0.12 0.08 0.08 94 1009.7
20260902171043 58 167 3.0 5.0 0.12 0.07 0.07 94 1009.7
20260902170538 58 189 5.0 6.0 0.19 0.06 0.06 93 1009.7
20260902170033 59 219 5.0 8.0 0.12 0.05 0.05 92 1009.7
20260902165528 59 165 5.0 7.0 0.12 0.04 0.04 91 1009.7
20260902165027 59 185 3.0 5.0 0.05 0.03 0.03 90 1009.7
20260902164523 60 186 3.0 5.0 0.07 0.02 0.02 88 1009.7
20260902164021 60 223 1.0 3.0 0.12 0.02 0.02 88 1009.3
20260902163517 61 189 5.0 6.0 0.05 0.01 0.01 86 1009.7
20260902163016 61 195 3.0 3.0 0.00 0.00 0.00 84 1009.3
20260902162510 62 213 3.0 5.0 0.00 0.00 0.00 82 1009.3
20260902162005 62 198 3.0 3.0 0.00 0.00 0.00 81 1009.0
20260902161500 62 205 3.0 5.0 0.00 0.00 0.00 80 1009.0
20260902160956 62 177 2.0 2.0 0.00 0.00 0.00 80 1009.0
20260902160451 62 201 1.0 1.0 0.00 0.00 0.00 81 1009.0
20260902155948 62 203 1.0 1.0 0.00 0.00 0.00 82 1009.0
20260902155444 62 204 1.0 1.0 0.00 0.00 0.00 81 1009.0
20260902154938 62 203 0.0 0.0 0.00 0.00 0.00 82 1009.0
20260902154434 62 201 1.0 2.0 0.00 0.00 0.00 81 1009.3
20260902153933 62 194 1.0 1.0 0.00 0.00 0.00 80 1009.3
20260902153432 62 195 1.0 1.0 0.00 0.00 0.00 80 1009.3
20260902152928 62 200 1.0 1.0 0.00 0.00 0.00 81 1009.3
20260902152423 61 201 1.0 1.0 0.00 0.00 0.00 81 1009.3
20260902151919 61 185 2.0 2.0 0.00 0.00 0.00 82 1009.3
20260902151414 61 167 4.0 5.0 0.00 0.00 0.00 82 1009.7
20260902150908 61 206 0.0 0.0 0.00 0.00 0.00 83 1009.7
20260902150405 61 192 1.0 1.0 0.00 0.00 0.00 83 1009.7
20260902145904 61 184 1.0 1.0 0.00 0.00 0.00 83 1009.7
20260902145359 60 187 2.0 3.0 0.00 0.00 0.00 84 1009.7
20260902144854 60 191 2.0 2.0 0.00 0.00 0.00 84 1010.0
20260902144350 60 186 2.0 2.0 0.00 0.00 0.00 84 1009.7
20260902143844 60 187 3.0 5.0 0.00 0.00 0.00 84 1010.0
20260902143339 60 186 3.0 3.0 0.00 0.00 0.00 84 1009.7
20260902142836 60 197 2.0 2.0 0.00 0.00 0.00 84 1010.0
20260902142332 60 159 3.0 3.0 0.00 0.00 0.00 84 1010.0
20260902141832 60 192 0.0 1.0 0.00 0.00 0.00 84 1010.0
20260902141327 60 183 3.0 3.0 0.00 0.00 0.00 85 1010.0
20260902140826 60 187 2.0 2.0 0.00 0.00 0.00 85 1010.0
20260902140322 60 176 2.0 2.0 0.00 0.00 0.00 85 1009.7
20260902135821 60 164 2.0 2.0 0.00 0.00 0.00 85 1010.0
20260902135318 60 193 2.0 2.0 0.00 0.00 0.00 85 1010.0
20260902134816 60 186 1.0 2.0 0.00 0.00 0.00 85 1010.4
20260902134312 60 156 2.0 3.0 0.00 0.00 0.00 85 1010.0
20260902133807 60 188 1.0 2.0 0.00 0.00 0.00 84 1010.4
20260902133307 60 175 2.0 2.0 0.00 0.00 0.00 84 1010.4
20260902132802 60 175 3.0 3.0 0.00 0.00 0.00 84 1010.7
20260902132257 60 193 2.0 3.0 0.00 0.00 0.00 84 1010.4
20260902131753 60 178 3.0 3.0 0.00 0.00 0.00 83 1010.7
20260902131249 60 195 2.0 3.0 0.00 0.00 0.00 83 1010.7
20260902130749 60 174 3.0 5.0 0.00 0.00 0.00 83 1010.7
20260902130245 60 112 4.0 5.0 0.00 0.00 0.00 83 1010.7
20260902125740 60 169 2.0 2.0 0.00 0.00 0.00 82 1011.1
20260902125236 60 178 2.0 2.0 0.00 0.00 0.00 82 1011.1
20260902124732 60 173 2.0 3.0 0.00 0.00 0.00 82 1011.1
20260902124227 61 191 1.0 1.0 0.00 0.00 0.00 82 1011.1
20260902123722 61 184 2.0 3.0 0.00 0.00 0.00 82 1011.5
20260902123218 61 167 4.0 5.0 0.00 0.00 0.00 82 1011.1
20260902122718 61 180 3.0 5.0 0.00 0.00 0.00 82 1011.1
20260902122214 61 173 3.0 3.0 0.00 0.00 0.00 82 1011.5
20260902121713 61 175 2.0 2.0 0.00 0.00 0.00 81 1011.5
20260902121208 61 189 1.0 2.0 0.00 0.00 0.00 81 1011.5
20260902120704 61 169 2.0 2.0 0.00 0.00 0.00 81 1011.5
20260902120201 61 166 4.0 5.0 0.00 0.00 0.00 81 1011.8
20260902115700 61 168 2.0 3.0 0.00 0.00 0.00 81 1011.5
20260902115156 61 179 1.0 2.0 0.00 0.00 0.00 81 1011.8
20260902114652 61 171 5.0 6.0 0.00 0.00 0.00 81 1011.8
20260902114147 61 199 1.0 2.0 0.00 0.00 0.00 81 1012.5
20260902113643 61 194 1.0 1.0 0.00 0.00 0.00 81 1011.8
20260902113137 61 184 2.0 5.0 0.00 0.00 0.00 81 1012.1
20260902112632 61 84 3.0 3.0 0.00 0.00 0.00 81 1012.1
20260902112129 60 178 1.0 2.0 0.00 0.00 0.00 81 1012.1
20260902111625 60 180 3.0 6.0 0.00 0.00 0.00 81 1012.1
20260902111121 60 189 1.0 1.0 0.00 0.00 0.00 82 1012.1
20260902110616 60 161 4.0 6.0 0.00 0.00 0.00 82 1012.1
20260902110112 60 180 2.0 2.0 0.00 0.00 0.00 82 1012.8
20260902105606 60 179 3.0 6.0 0.00 0.00 0.00 82 1012.5
20260902105101 60 175 2.0 2.0 0.00 0.00 0.00 83 1012.8
20260902104556 60 158 2.0 2.0 0.00 0.00 0.00 83 1012.5
20260902104051 60 182 4.0 5.0 0.00 0.00 0.00 83 1012.5
20260902103546 60 179 2.0 2.0 0.00 0.00 0.00 83 1012.5
20260902103041 60 174 1.0 2.0 0.00 0.00 0.00 83 1012.8
20260902102538 60 184 3.0 3.0 0.00 0.00 0.00 83 1012.8
20260902102035 60 176 1.0 2.0 0.00 0.00 0.00 84 1012.8
20260902101530 60 149 2.0 3.0 0.00 0.00 0.00 84 1013.2
20260902101028 60 158 4.0 6.0 0.00 0.00 0.00 84 1013.2
20260902100523 59 189 2.0 2.0 0.00 0.00 0.00 84 1013.2
20260902100018 59 197 1.0 1.0 0.00 0.00 0.00 85 1013.2
20260902095517 59 191 3.0 3.0 0.00 0.00 0.00 85 1013.2
20260902095016 59 178 1.0 1.0 0.00 0.00 0.00 85 1013.2
20260902094512 59 181 3.0 3.0 0.00 0.00 0.00 85 1013.2
20260902094007 59 154 3.0 3.0 0.00 0.00 0.00 84 1013.2
20260902093503 59 129 3.0 5.0 0.00 0.00 0.00 84 1013.2
20260902093002 59 196 0.0 1.0 0.00 0.00 0.00 83 1013.2
20260902092457 60 204 2.0 2.0 0.00 0.00 0.00 83 1013.2
20260902091956 60 209 2.0 2.0 0.00 0.00 0.00 82 1013.2
20260902091451 60 175 2.0 2.0 0.00 0.00 0.00 82 1013.2
20260902090948 60 160 3.0 3.0 0.00 0.00 0.00 81 1013.2
20260902090443 60 164 5.0 6.0 0.00 0.00 0.00 81 1013.5
20260902085941 60 165 3.0 3.0 0.00 0.00 0.00 81 1013.5
20260902085437 60 181 2.0 2.0 0.00 0.00 0.00 80 1013.5
20260902084932 61 178 4.0 5.0 0.00 0.00 0.00 80 1013.5
20260902084429 60 178 2.0 2.0 0.00 0.00 0.00 80 1013.5
20260902083919 60 186 1.0 2.0 0.00 0.00 0.00 80 1013.8
20260902083418 60 187 1.0 2.0 0.00 0.00 0.00 80 1013.8
20260902082913 60 199 0.0 0.0 0.00 0.00 0.00 80 1013.8
20260902082409 60 195 1.0 1.0 0.00 0.00 0.00 80 1013.8
20260902081906 61 194 1.0 1.0 0.00 0.00 0.00 80 1013.8
20260902081401 60 202 0.0 1.0 0.00 0.00 0.00 80 1013.8
20260902080856 60 206 2.0 2.0 0.00 0.00 0.00 80 1014.2
20260902080352 60 199 1.0 2.0 0.00 0.00 0.00 80 1014.2
20260902075851 60 194 1.0 1.0 0.00 0.00 0.00 80 1014.2
20260902075348 60 201 1.0 2.0 0.00 0.00 0.00 80 1013.8
20260902074843 60 211 3.0 5.0 0.00 0.00 0.00 80 1013.8
20260902074338 60 184 4.0 5.0 0.00 0.00 0.00 80 1014.2
20260902073833 60 181 4.0 5.0 0.00 0.00 0.00 81 1013.8
20260902073330 60 168 2.0 2.0 0.00 0.00 0.00 82 1013.8
20260902072826 60 170 2.0 5.0 0.00 0.00 0.00 81 1013.8
20260902072320 60 192 5.0 7.0 0.00 0.00 0.00 82 1013.8
20260902071817 60 165 5.0 7.0 0.00 0.00 0.00 82 1014.2
20260902071312 60 195 4.0 5.0 0.00 0.00 0.00 83 1014.2
20260902070808 60 183 3.0 5.0 0.00 0.00 0.00 83 1014.2
20260902070308 60 164 5.0 6.0 0.00 0.00 0.00 84 1014.2
20260902065807 60 204 2.0 2.0 0.00 0.00 0.00 84 1014.2
20260902065306 61 188 3.0 5.0 0.00 0.00 0.00 84 1014.2
20260902064757 61 199 4.0 5.0 0.00 0.00 0.00 84 1014.2
20260902064253 61 174 4.0 5.0 0.00 0.00 0.00 84 1014.5
20260902063749 61 169 1.0 3.0 0.00 0.00 0.00 84 1014.2
20260902063243 61 190 1.0 2.0 0.00 0.00 0.00 83 1014.2
20260902062737 61 170 5.0 6.0 0.00 0.00 0.00 83 1014.5
20260902062232 62 191 1.0 1.0 0.00 0.00 0.00 83 1014.2
20260902061731 62 165 5.0 7.0 0.00 0.00 0.00 82 1014.2
20260902061227 62 159 3.0 3.0 0.00 0.00 0.00 82 1014.5
20260902060724 62 201 3.0 5.0 0.00 0.00 0.00 82 1014.5
20260902060219 62 194 2.0 2.0 0.00 0.00 0.00 81 1014.5
20260902055714 62 209 3.0 5.0 0.00 0.00 0.00 81 1014.5
20260902055210 62 214 1.0 2.0 0.00 0.00 0.00 81 1014.9
20260902054705 62 150 9.0 10.0 0.00 0.00 0.00 81 1014.5
20260902054155 63 189 1.0 2.0 0.00 0.00 0.00 80 1014.5
20260902053650 62 175 2.0 3.0 0.00 0.00 0.00 80 1014.9
20260902053145 63 167 3.0 5.0 0.00 0.00 0.00 80 1014.5
20260902052644 63 198 1.0 2.0 0.00 0.00 0.00 80 1014.9
20260902052140 63 189 3.0 3.0 0.00 0.00 0.00 80 1014.9
20260902051639 63 194 1.0 1.0 0.00 0.00 0.00 80 1014.9
20260902051133 63 195 3.0 3.0 0.00 0.00 0.00 80 1014.9
20260902050627 63 185 2.0 3.0 0.00 0.00 0.00 80 1014.9
20260902050122 62 189 1.0 2.0 0.00 0.00 0.00 80 1014.9
20260902045618 62 190 2.0 2.0 0.00 0.00 0.00 80 1014.9
20260902045109 62 195 0.0 0.0 0.00 0.00 0.00 80 1014.9
20260902044609 62 207 0.0 0.0 0.00 0.00 0.00 80 1014.9
20260902044105 62 191 0.0 0.0 0.00 0.00 0.00 80 1014.5
20260902043559 63 184 0.0 0.0 0.00 0.00 0.00 79 1014.9
20260902043054 63 189 0.0 0.0 0.00 0.00 0.00 79 1014.9
20260902042553 63 200 0.0 0.0 0.00 0.00 0.00 79 1014.9
20260902042049 63 202 0.0 1.0 0.00 0.00 0.00 79 1014.5
20260902041548 63 211 0.0 0.0 0.00 0.00 0.00 79 1014.5
20260902041043 63 212 1.0 1.0 0.00 0.00 0.00 79 1015.2
20260902040538 63 197 2.0 2.0 0.00 0.00 0.00 79 1014.9
20260902040033 63 197 1.0 1.0 0.00 0.00 0.00 79 1015.2
20260902035531 63 225 2.0 5.0 0.00 0.00 0.00 79 1014.9
20260902035027 63 197 3.0 5.0 0.00 0.00 0.00 78 1014.5
20260902034526 63 157 4.0 5.0 0.00 0.00 0.00 78 1015.2
20260902034025 63 185 1.0 2.0 0.00 0.00 0.00 78 1014.9
20260902033525 63 199 0.0 0.0 0.00 0.00 0.00 78 1014.5
20260902033020 63 173 3.0 5.0 0.00 0.00 0.00 78 1014.5
20260902032514 63 149 5.0 6.0 0.00 0.00 0.00 78 1014.5
20260902032008 63 202 2.0 3.0 0.00 0.00 0.00 78 1014.9
20260902031503 63 174 2.0 2.0 0.00 0.00 0.00 78 1014.5
20260902030959 63 198 2.0 3.0 0.00 0.00 0.00 77 1014.9
20260902030454 63 218 3.0 5.0 0.00 0.00 0.00 77 1014.9
20260902025952 63 194 2.0 2.0 0.00 0.00 0.00 77 1014.5
20260902025448 63 208 1.0 2.0 0.00 0.00 0.00 77 1014.2
20260902024949 64 151 0.0 0.0 0.00 0.00 0.00 77 1014.9
20260902024444 64 192 0.0 0.0 0.00 0.00 0.00 76 1014.5
20260902023944 64 213 1.0 1.0 0.00 0.00 0.00 76 1014.5
20260902023440 64 214 1.0 1.0 0.00 0.00 0.00 76 1014.5
20260902022939 64 222 2.0 2.0 0.00 0.00 0.00 75 1014.5
20260902022434 64 211 0.0 1.0 0.00 0.00 0.00 75 1014.5
20260902021930 64 193 2.0 5.0 0.00 0.00 0.00 75 1014.5
20260902021425 64 231 3.0 3.0 0.00 0.00 0.00 75 1014.5
20260902020921 64 216 1.0 1.0 0.00 0.00 0.00 75 1014.2
20260902020417 64 179 1.0 2.0 0.00 0.00 0.00 75 1014.9